Weather History for KTPF - March, 2013

Change the Weather History Date:

Monday, March 18, 2013

  Actual Average (KTPA) Record (KTPA)
Temperature  
Mean Temperature 66 °F 68 °F  
Max Temperature 73 °F 77 °F 89 °F (1945)
Min Temperature 60 °F 58 °F 40 °F (1971)
Degree Days  
Heating Degree Days 0 2  
Month to date heating degree days 42  
Since 1 July heating degree days 513  
Cooling Degree Days 2 4  
Month to date cooling degree days 66  
Year to date cooling degree days 179  
Growing Degree Days 16 (Base 50)    
Moisture  
Dew Point 60 °F    
Average Humidity 77    
Maximum Humidity 88    
Minimum Humidity 65    
Precipitation  
Precipitation 0.00 in 0.11 in 1.67 in (1924)
Month to date precipitation 1.76  
Year to date precipitation 6.80  
Sea Level Pressure  
Sea Level Pressure 30.00 in    
Wind  
Wind Speed 5 mph (South)    
Max Wind Speed 20 mph    
Max Gust Speed 28 mph    
Visibility 10 miles    
Events      
T = Trace of Precipitation, MM = Missing Value Source: NWS Daily Summary

Daily Weather History Graph

Daily Weather History Graph

Search for Another Location

Airport or City:

Trip Planner

Search our weather history database for the weather conditions in past years. The results will help you decide how hot, cold, wet, or windy it might be!

Date:

Astronomy

Mar. 18, 2013 Rise Set
Actual Time 7:35 AM EDT 7:40 PM EDT
Civil Twilight 7:12 AM EDT 8:03 PM EDT
Nautical Twilight 6:45 AM EDT 8:30 PM EDT
Astronomical Twilight 6:17 AM EDT 8:58 PM EDT
Moon 12:02 PM EDT (3/18) 1:10 AM EDT (3/18)
Length of Visible Light 12h 51m
Length of Day
12h 04m
Waxing Crescent, 40% of the Moon is Illuminated
Mar 18
Waxing Crescent
Mar 19
First Quarter
Mar 27
Full
Apr 3
Last Quarter
Apr 10
New

Hourly Weather History & Observations

Time (EDT) Temp. Dew Point Humidity Pressure Visibility Wind Dir Wind Speed Gust Speed Precip Events Conditions
12:15 AM 62.6 °F 57.2 °F 82% 30.04 in 10.0 mi East 4.6 mph - N/A   Scattered Clouds
12:35 AM 64.4 °F 55.4 °F 73% 30.04 in 10.0 mi ESE 5.8 mph - N/A   Clear
12:55 AM 64.4 °F 55.4 °F 73% 30.04 in 10.0 mi SE 8.1 mph - N/A   Clear
1:15 AM 64.4 °F 55.4 °F 73% 30.03 in 10.0 mi SE 8.1 mph - N/A   Clear
1:55 AM 64.4 °F 55.4 °F 73% 30.01 in 10.0 mi East 6.9 mph - N/A   Scattered Clouds
2:15 AM 64.4 °F 55.4 °F 73% 30.03 in 10.0 mi East 3.5 mph - N/A   Scattered Clouds
2:35 AM 62.6 °F 53.6 °F 72% 30.03 in 10.0 mi Calm Calm - N/A   Clear
2:55 AM 60.8 °F 53.6 °F 77% 30.03 in 10.0 mi NE 3.5 mph - N/A   Clear
3:15 AM 62.6 °F 55.4 °F 77% 30.03 in 10.0 mi NE 3.5 mph - N/A   Clear
3:35 AM 60.8 °F 55.4 °F 82% 30.03 in 10.0 mi Calm Calm - N/A   Clear
3:55 AM 60.8 °F 55.4 °F 82% 30.03 in 10.0 mi Calm Calm - N/A   Clear
4:15 AM 60.8 °F 55.4 °F 82% 30.02 in 10.0 mi Calm Calm - N/A   Clear
4:35 AM 62.6 °F 55.4 °F 77% 30.02 in 10.0 mi SSE 4.6 mph - N/A   Clear
4:55 AM 62.6 °F 57.2 °F 82% 30.02 in 10.0 mi SSE 4.6 mph - N/A   Clear
5:15 AM 62.6 °F 57.2 °F 82% 30.01 in 10.0 mi SSE 5.8 mph - N/A   Scattered Clouds
5:35 AM 62.6 °F 57.2 °F 82% 30.02 in 10.0 mi SSE 5.8 mph - N/A   Scattered Clouds
5:55 AM 62.6 °F 55.4 °F 77% 30.03 in 10.0 mi SE 3.5 mph - N/A   Clear
6:15 AM 62.6 °F 55.4 °F 77% 30.03 in 10.0 mi SE 5.8 mph - N/A   Clear
6:35 AM 62.6 °F 55.4 °F 77% 30.03 in 10.0 mi Calm Calm - N/A   Clear
7:15 AM 62.6 °F 55.4 °F 77% 30.04 in 10.0 mi SE 3.5 mph - N/A   Clear
7:35 AM 62.6 °F 55.4 °F 77% 30.04 in 10.0 mi SE 5.8 mph - N/A   Clear
7:55 AM 62.6 °F 55.4 °F 77% 30.04 in 10.0 mi SE 4.6 mph - N/A   Clear
8:15 AM 62.6 °F 57.2 °F 82% 30.04 in 10.0 mi SE 5.8 mph - N/A   Clear
8:35 AM 64.4 °F 57.2 °F 77% 30.04 in 10.0 mi SSE 8.1 mph - N/A   Clear
8:55 AM 64.4 °F 59.0 °F 83% 30.03 in 10.0 mi SSE 8.1 mph - N/A   Clear
9:15 AM 66.2 °F 59.0 °F 78% 30.03 in 10.0 mi South 10.4 mph - N/A   Clear
9:35 AM 68.0 °F 59.0 °F 73% 30.03 in 10.0 mi South 13.8 mph - N/A   Scattered Clouds
9:55 AM 68.0 °F 59.0 °F 73% 30.03 in 10.0 mi South 12.7 mph 19.6 mph N/A   Mostly Cloudy
10:15 AM 69.8 °F 60.8 °F 73% 30.04 in 10.0 mi South 8.1 mph - N/A   Mostly Cloudy
10:35 AM 69.8 °F 60.8 °F 73% 30.05 in 10.0 mi South 8.1 mph - N/A   Mostly Cloudy
10:55 AM 69.8 °F 60.8 °F 73% 30.05 in 10.0 mi South 4.6 mph - N/A   Overcast
11:15 AM 71.6 °F 60.8 °F 69% 30.05 in 10.0 mi SSW 3.5 mph - N/A   Mostly Cloudy
11:35 AM 71.6 °F 60.8 °F 69% 30.05 in 10.0 mi South 3.5 mph - N/A   Scattered Clouds
11:55 AM 71.6 °F 60.8 °F 69% 30.04 in 10.0 mi Calm Calm - N/A   Clear
12:15 PM 71.6 °F 62.6 °F 73% 30.03 in 10.0 mi South 4.6 mph - N/A   Clear
12:35 PM 71.6 °F 60.8 °F 69% 30.05 in 10.0 mi SW 3.5 mph - N/A   Clear
12:55 PM 73.4 °F 60.8 °F 65% 30.05 in 10.0 mi SW 5.8 mph - N/A   Scattered Clouds
1:15 PM 71.6 °F 62.6 °F 73% 30.04 in 10.0 mi SSW 3.5 mph - N/A   Clear
1:35 PM 73.4 °F 60.8 °F 65% 30.02 in 10.0 mi SSW 4.6 mph - N/A   Clear
1:55 PM 73.4 °F 60.8 °F 65% 30.02 in 10.0 mi WSW 3.5 mph - N/A   Clear
2:15 PM 73.4 °F 62.6 °F 69% 30.01 in 10.0 mi WSW 3.5 mph - N/A   Scattered Clouds
2:35 PM 73.4 °F 62.6 °F 69% 30.00 in 10.0 mi Calm Calm - N/A   Scattered Clouds
2:55 PM 73.4 °F 62.6 °F 69% 29.97 in 10.0 mi South 4.6 mph - N/A   Mostly Cloudy
3:15 PM 71.6 °F 62.6 °F 73% 29.96 in 10.0 mi South 6.9 mph - N/A   Scattered Clouds
3:35 PM 71.6 °F 62.6 °F 73% 29.96 in 10.0 mi SSW 5.8 mph - N/A   Scattered Clouds
3:55 PM 71.6 °F 62.6 °F 73% 29.97 in 10.0 mi SW 4.6 mph - N/A   Mostly Cloudy
4:15 PM 71.6 °F 62.6 °F 73% 29.96 in 10.0 mi South 6.9 mph - N/A   Scattered Clouds
4:35 PM 71.6 °F 64.4 °F 78% 29.96 in 10.0 mi South 5.8 mph - N/A   Clear
4:55 PM 71.6 °F 64.4 °F 78% 29.96 in 10.0 mi South 4.6 mph - N/A   Clear
5:15 PM 69.8 °F 64.4 °F 83% 29.96 in 10.0 mi SSW 3.5 mph - N/A   Clear
5:35 PM 69.8 °F 64.4 °F 83% 29.95 in 10.0 mi SSW 4.6 mph - N/A   Clear
5:55 PM 69.8 °F 64.4 °F 83% 29.94 in 10.0 mi South 3.5 mph - N/A   Clear
6:15 PM 69.8 °F 62.6 °F 78% 29.93 in 10.0 mi South 4.6 mph - N/A   Clear
6:35 PM 69.8 °F 62.6 °F 78% 29.94 in 10.0 mi SW 4.6 mph - N/A   Clear
6:55 PM 69.8 °F 62.6 °F 78% 29.95 in 10.0 mi SW 3.5 mph - N/A   Clear
7:15 PM 69.8 °F 62.6 °F 78% 29.96 in 10.0 mi WSW 3.5 mph - N/A   Clear
7:35 PM 69.8 °F 62.6 °F 78% 29.97 in 10.0 mi West 3.5 mph - N/A   Clear
8:15 PM 68.0 °F 62.6 °F 83% 29.97 in 10.0 mi SW 6.9 mph - N/A   Scattered Clouds
8:35 PM 68.0 °F 62.6 °F 83% 29.96 in 10.0 mi SSW 8.1 mph - N/A   Clear
8:55 PM 66.2 °F 62.6 °F 88% 29.97 in 10.0 mi SSW 15.0 mph - N/A   Clear
9:15 PM 68.0 °F 62.6 °F 83% 29.96 in 10.0 mi South 16.1 mph - N/A   Mostly Cloudy
9:35 PM 66.2 °F 62.6 °F 88% 29.92 in 10.0 mi South 19.6 mph 25.3 mph N/A   Light Drizzle
9:55 PM 68.0 °F 62.6 °F 83% 29.93 in 10.0 mi South 18.4 mph 27.6 mph N/A   Clear
10:15 PM 68.0 °F 62.6 °F 83% 29.96 in 10.0 mi SSW 10.4 mph - N/A   Clear
10:35 PM 68.0 °F 62.6 °F 83% 29.98 in 10.0 mi West 3.5 mph - N/A   Mostly Cloudy
10:55 PM 68.0 °F 62.6 °F 83% 29.95 in 10.0 mi South 8.1 mph - N/A   Mostly Cloudy
11:15 PM 66.2 °F 62.6 °F 88% 29.94 in 10.0 mi South 3.5 mph - N/A   Scattered Clouds
11:55 PM 66.2 °F 62.6 °F 88% 29.93 in 10.0 mi Calm Calm - N/A   Clear